Regional Weather Roundup
Issued by NWS Upton, NY

Current Version | Previous Version | Graphics & Text | Print | Product List | Glossary Off
Versions: 1 2 3 4 5 6 7 8 9 10 11 12 13 14 15 16 17 18 19 20 21 22 23 24 25 26 27 28 29 30 31 32 33 34 35 36 37 38 39 40 41 42 43 44 45 46 47 48 49 50

000
ASUS41 KOKX 162105
RWROKX

REGIONAL WEATHER ROUNDUP
NATIONAL WEATHER SERVICE NEW YORK NY
500 PM EDT TUE SEP 16 2014

NOTE: "FAIR" INDICATES FEW OR NO CLOUDS BELOW 12,000 FEET WITH NO
SIGNIFICANT WEATHER AND/OR OBSTRUCTIONS TO VISIBILITY.

NYZ071-072-176-178-NJZ106-104-162200-
NEW YORK CITY METRO AREA


CITY           SKY/WX    TMP DP  RH WIND       PRES   REMARKS
CENTRAL PARK   CLOUDY    67  55  65 CALM      29.99S
LAGUARDIA APRT PTSUNNY   67  57  70 S8        29.96S
KENNEDY INTL   PTSUNNY   65  56  72 S5        29.98S
NEWARK/LIBERTY CLOUDY    71  52  50 NW8       29.97R
BRNX BOT. GARD   N/A     68  55  64 S2        29.97S
TETERBORO      CLOUDY    71  50  47 N8        29.95S
$$

NYZ177-179-078>081-162200-
LONG ISLAND NEW YORK

CITY           SKY/WX    TMP DP  RH WIND       PRES   REMARKS
FARMINGDALE    CLOUDY    68  57  68 SE6       29.98R
ISLIP          CLOUDY    65  57  75 SW3       29.96S
SHIRLEY        CLOUDY    65  59  81 SW3       29.98S
WESTHAMPTON    CLOUDY    65  58  78 W3        29.99R
MONTAUK POINT    N/A     67  56  67 NW5       29.98S
$$

NYZ052-065-067-162200-
HUDSON VALLEY

CITY           SKY/WX    TMP DP  RH WIND       PRES   REMARKS
WHITE PLAINS   CLOUDY    66  52  60 N3        29.97S
NEWBURGH       PTSUNNY   66  55  68 VRB6      29.99S
MONTGOMERY     CLOUDY    67  51  56 NW9       29.98R
POUGHKEEPSIE   CLOUDY    67  54  63 CALM      29.97R
ALBANY         PTSUNNY   65  52  62 W8        29.97F
$$

NJZ001-105-106-008-010-013-015-019>022-104-162200-
NEW JERSEY

CITY           SKY/WX    TMP DP  RH WIND       PRES   REMARKS
NEWARK/LIBERTY CLOUDY    71  52  50 NW8       29.97R
TETERBORO      CLOUDY    71  50  47 N8        29.95S
CALDWELL       PTSUNNY   68  51  54 NW8       29.98S
MORRISTOWN     NOT AVBL
SOMERVILLE     PTSUNNY   71  52  50 NW9       29.96S
LINDEN         CLOUDY    72  61  68 CALM      29.99S
SUSSEX         PTSUNNY   71  51  49 N8        29.99S
ANDOVER          N/A     65  49  56 VRB5      30.00R
TRENTON        CLOUDY    70  53  54 N6        29.97S
MILLVILLE      MOSUNNY   72  54  53 NW7       29.97R
ATLANTIC CITY  MOSUNNY   74  58  57 N13       29.96S
WRIGHTSTOWN    PTSUNNY   69  58  66 N7        29.95S
TOMS RIVER     MOSUNNY   70  55  60 N3        29.97S
BELMAR         CLOUDY    66  55  68 CALM      29.98S
$$

PAZ047>061-062-071-162200-
EASTERN PENNSYLVANIA

CITY           SKY/WX    TMP DP  RH WIND       PRES   REMARKS
PHILADELPHIA   PTSUNNY   72  52  49 NW5       29.98R
ALLENTOWN      CLOUDY    69  50  50 N7        30.00R
SCRANTON       CLOUDY    64  48  56 NW7       30.02S
$$

CTZ002-004>006-009-010-012-RIZ004-006-007-MAZ004-011-015-162200-
SOUTHERN NEW ENGLAND
 IN CT

CITY           SKY/WX    TMP DP  RH WIND       PRES   REMARKS
BRADLEY INTL   PTSUNNY   67  52  58 NW3       29.96S
HARTFORD       CLOUDY    68  50  52 VRB5      29.96S
DANBURY        CLOUDY    66  52  60 N6        29.99R
WTRBRY/OXFORD  PTSUNNY   64  50  59 NW6       29.99R
BRIDGEPORT     PTSUNNY   67  57  70 SW7       29.97S
MERIDEN        CLOUDY    67  50  54 VRB6      29.97S
NEW HAVEN      PTSUNNY   68  58  70 W3        29.97S
CHESTER        MOCLDY    63  57  82 CALM      29.98S
GROTON         CLOUDY    63  56  78 W9        29.96S
WILLIMANTIC    CLOUDY    65  53  65 W3        29.97S

 IN RI

CITY           SKY/WX    TMP DP  RH WIND       PRES   REMARKS
PROVIDENCE     PTSUNNY   66  53  63 W8        29.97R
BLOCK ISLAND   CLOUDY    66  52  59 W7        29.97S
WESTERLY       CLOUDY    65  56  72 W6        29.98R

 IN MA

CITY           SKY/WX    TMP DP  RH WIND       PRES   REMARKS
BOSTON         PTSUNNY   61  55  81 SE8       29.96S
WORCESTER      CLOUDY    60  51  72 W6        29.97F
WESTFIELD      CLOUDY    66  51  58 W5        29.96S
PROVINCETOWN   CLOUDY    63  55  77 CALM      29.96S
NANTUCKET      SUNNY     65  52  62 SE8       29.96S
$$

ANZ330-335-338-340-345-350-353-355-162200-
COASTAL MARINE OBSERVATIONS


STATION/POSITION TIME  SKY/WX   TEMP    WIND        PRES    VSBY  WAVE
                                AIR SEA DIR/SP/G                  HT/PER
                 (UTC)          (F)     (DEG/KT/KT) (MB)    (MI)  (FT/S)
NY HARB ENTRANCE NOT AVBL
4S FIRE IS       NOT AVBL
23SW MTP         2100                                 N/A           2/ 8
HUDSON CANYON    2100            66 73   50/ 10/ 12 1014.0          2/12
EXECUTION ROCKS  2100            69 72  180/  2/  4   N/A
WESTERN LI SOUND 2100            67      CALM  /  2   N/A           0
CENTRAL LI SOUND 2000            64 71  250/  4/  6   N/A           1
EASTERN LI SOUND 2000            66 68  270/  6/  8   N/A
ROBBINS REEF     2100            65     170/ 11/ 13 1013.6
$$


>>>>>>>>>>>>>>>>>>>>>>>>>>>> KEY <<<<<<<<<<<<<<<<<<<<<<<<<<<
>                                                          <
>     SKY/WX - SKY CONDITION/PRESENT WEATHER               <
>     TMP    - TEMPERATURE IN FAHRENHEIT                   <
>     DP     - DEWPOINT IN FAHRENHEIT                      <
>     RH     - RELATIVE HUMIDITY IN PERCENT                <
>     WIND   - DIRECTION AND SPEED IN MPH                  <
>     PRES   - MEAN SEA LEVEL PRESSURE IN INCHES OF HG     <
>     WCI    - WIND CHILL INDEX                            <
>     VSB    - VISIBILITY IN MILES                         <
>     HX     - HEAT INDEX                                  <
>     TC     - TEMPERATURE IN CELSIUS                      <
>     VRB    - VARIABLE WIND DIRECTION                     <
>                                                          <
>>>>>>>>>>>>>>>>>>>>>>>>>>>> KEY <<<<<<<<<<<<<<<<<<<<<<<<<<<





USA.gov is the U.S. government's official web portal to all federal, state and local government web resources and services.